カタログに戻る

FENGYUN 1C DEB

運用中SSO
NORAD 31737·DEBRIS·🇨🇳 China

打ち上げ May 10, 1999 から Taiyuan Satellite Launch Center

Loading…

次のパス (今後24時間)

TLE

最新Source: Space-Track

元期: Sep 13, 2026, 13:35 UTC

1 31737U 99025CEL 26256.56659249  .00001672  00000-0  24252-3 0  9997
2 31737  97.8900 286.4876 0143172 216.8538 296.1883 14.70618845 22373

AllMySatでFENGYUN 1C DEBをリアルタイム追跡

Download on the App Store